[[{"header":{"parameterUnit":"m.s-1","parameterCategory":1,"la1":30.2991,"la2":30.254,"lo1":-89.0895,"lo2":-89.0444,"dy":0.0017,"dx":0.0017,"nx":28,"ny":28,"refTime":"2024-05-15T09:00:00:Z","depth":0,"parameterNumber":2,"parameterNumberName":"U-component_of_WINDS"},"data":[0,0,0,0,0,0,0,0,0,0,0,0,0,0,0,0,0,0,0,0,0,0,0,0,0,0,0,0,0,0,0,0,0,0,0,0,0,0,0,0,0,0,0,0,0,0,0,0,0,0,0,0,0,0,0,0,0,0,0.4173,0.4173,0,0.4256,0.4257,0.4258,0.4254,0.4253,0.4252,0.4251,0.4341,0.4345,0.4348,0,0,0,0,0,0,0,0,0,0,0,0,0,0.4016,0.4019,0.4172,0.4174,0.4175,0.4256,0.4257,0.4258,0.4254,0.4253,0.4251,0.425,0.434,0.4344,0.4348,0,0,0,0,0,0,0,0,0,0,0,0,0,0.409,0.402,0.4172,0.4182,0.4184,0.4256,0.4257,0.4258,0.4255,0.4253,0.4251,0.4249,0.4339,0.4344,0.4349,0.4418,0,0,0.4365,0.4367,0,0,0,0,0,0,0,0,0.4086,0.4096,0.418,0.4182,0.4184,0.4243,0.4235,0.4312,0.4255,0.4228,0.4251,0.4248,0.431,0.4318,0.4337,0.4422,0.4426,0.4366,0.4369,0.4371,0.4373,0,0,0,0,0,0,0,0.4081,0.4093,0.4206,0.4181,0.4184,0.4185,0.4193,0.425,0.4278,0.423,0.423,0.424,0.4311,0.4332,0.434,0.4427,0.4366,0.437,0.4373,0.4376,0.4576,0.4578,0,0,0,0,0,0,0.4073,0.4088,0.4203,0.4208,0.4129,0.4189,0.4199,0.4226,0.4278,0.4284,0.4241,0.4239,0.4324,0.4333,0.4343,0.4429,0.4371,0.4376,0.4379,0.4574,0.4576,0.4579,0,0,0,0,0,0,0.407,0.4083,0.42,0.4148,0.4163,0.4194,0.4224,0.4228,0.425,0.4286,0.4292,0.4257,0.4323,0.4335,0.44,0.4432,0.4378,0.4383,0.4571,0.4574,0.4577,0.4601,0,0,0,0,0,0,0.4065,0.4082,0.4107,0.4149,0.4166,0.4253,0.4226,0.4231,0.4258,0.4256,0.4303,0.4309,0.4323,0.4392,0.4405,0.4439,0.4387,0.4568,0.4573,0.4576,0.4597,0.4604,0.461,0,0,0,0,0,0.406,0.411,0.4108,0.4122,0.4197,0.4255,0.4265,0.4279,0.4261,0.4287,0.4311,0.4307,0.4426,0.4398,0.4413,0.4449,0.4566,0.4571,0.4576,0.4594,0.4603,0.461,0,0,0,0,0,0,0.4073,0.4116,0.4114,0.4179,0.4213,0.4254,0.4288,0.4287,0.4328,0.4325,0.4342,0.4352,0.4417,0.4439,0.4407,0.452,0.4494,0.4502,0.4503,0.4512,0.4518,0.4513,0.4392,0,0,0,0,0,0.4083,0.4124,0.4161,0.4215,0.4232,0.4257,0.4283,0.429,0.4327,0.4342,0.437,0.4407,0.4453,0.4483,0.4527,0.46,0.4612,0.4632,0.4639,0.4644,0.4651,0.4695,0.4705,0.4594,0.4594,0.4594,0,0,0.4105,0.4134,0.4159,0.4218,0.4246,0.4291,0.4269,0.4317,0.4351,0.4349,0.4412,0.4434,0.4477,0.4547,0.4579,0.4567,0.4685,0.465,0.4654,0.4659,0.4701,0.4711,0.4721,0.4598,0.4597,0.4597,0,0,0.4169,0.4193,0.4243,0.4271,0.4312,0.4328,0.434,0.4382,0.4396,0.4459,0.4459,0.4501,0.4579,0.4611,0.4637,0.4715,0.4714,0.4729,0.4764,0.4806,0.4815,0.4823,0.4854,0.4864,0.4735,0.4736,0.4736,0,0.4192,0.4257,0.4269,0.4318,0.4345,0.4344,0.4396,0.4423,0.4477,0.4497,0.4483,0.4583,0.4611,0.469,0.4709,0.4729,0.4746,0.4724,0.4812,0.482,0.4828,0.4858,0.4869,0.4737,0.4737,0.4737,0.4737,0,0.4285,0.4331,0.4366,0.4418,0.4449,0.4499,0.4521,0.4551,0.4557,0.4576,0.4641,0.4676,0.4728,0.4747,0.4752,0.4827,0.4819,0.4808,0.4783,0.484,0.4868,0.488,0.474,0.4739,0.4739,0.4738,0,0,0.436,0.4418,0.4431,0.4455,0.4502,0.4538,0.459,0.464,0.4667,0.4705,0.4751,0.4817,0.4808,0.4838,0.4848,0.4884,0.4948,0.487,0.4871,0.4885,0.5036,0.5045,0.5058,0.4947,0.4949,0.495,0.5033,0,0.4431,0.452,0.4532,0.4612,0.4657,0.4657,0.4703,0.4737,0.4757,0.4799,0.4821,0.4869,0.4852,0.487,0.4906,0.4932,0.4979,0.4926,0.4992,0.4995,0.4984,0.5072,0.5082,0.5159,0.5044,0.5046,0.5047,0,0.4525,0.4565,0.4649,0.4691,0.4711,0.4751,0.4799,0.4838,0.4879,0.4891,0.4925,0.493,0.4986,0.4958,0.5037,0.5001,0.5029,0.5046,0.505,0.5058,0.5026,0.5086,0.5183,0.5196,0.5064,0.5063,0.5062,0,0.4575,0.4649,0.471,0.4731,0.4781,0.481,0.4832,0.4871,0.4901,0.4944,0.4964,0.5013,0.5041,0.508,0.51,0.5076,0.5179,0.5151,0.5194,0.5193,0.5217,0.5216,0.5322,0.523,0.523,0.523,0.523,0,0.4654,0.4706,0.4734,0.4771,0.4831,0.4846,0.4905,0.4927,0.4962,0.5006,0.5009,0.5051,0.5073,0.5119,0.5135,0.52,0.5212,0.5225,0.5229,0.5226,0.5225,0.5247,0.5243,0.5233,0.5232,0.5232,0.5231,0,0.472,0.474,0.4807,0.4849,0.4861,0.4903,0.4941,0.4979,0.4998,0.5054,0.5068,0.5099,0.5153,0.5176,0.5243,0.5254,0.533,0.5329,0.5316,0.5318,0.536,0.5357,0.5486,0.5505,0.5398,0.5399,0.54,0,0.4771,0.4811,0.4857,0.4886,0.491,0.4956,0.4987,0.5004,0.5036,0.5087,0.512,0.5173,0.5218,0.5305,0.5335,0.5387,0.5389,0.5431,0.5397,0.5394,0.5394,0.5392,0.5398,0.5438,0.5439,0.544,0.5441,0,0.4859,0.4867,0.491,0.4958,0.4995,0.5033,0.5071,0.5095,0.5119,0.5155,0.521,0.5245,0.5313,0.5368,0.5422,0.5448,0.545,0.5451,0.5464,0.5463,0.5455,0.5463,0.5336,0.5448,0.5447,0.5447,0.5446,0.5446,0.4921,0.4958,0.4997,0.5046,0.5076,0.5112,0.515,0.5174,0.522,0.5276,0.5284,0.5344,0.5386,0.5459,0.5487,0.5536,0.5525,0.5544,0.5549,0.5554,0.5558,0.5445,0.5545,0.5545,0.5545,0.5545,0.5545,0,0.5012,0.5037,0.5082,0.5135,0.5175,0.517,0.5212,0.5247,0.5298,0.5337,0.538,0.5445,0.5499,0.5533,0.5588,0.5621,0.5624,0.5635,0.5635,0.5641,0.5562,0.5547,0.5633,0.5633,0.5633,0.5633,0.5633,0.5633,0.5064,0.5127,0.5141,0.522,0.5245,0.5303,0.5328,0.5362,0.5393,0.5465,0.5509,0.5531,0.5569,0.5627,0.5677,0.5686,0.5707,0.572,0.5729,0.5655,0.5646,0.5638,0.5623,0.5724,0.5724,0.5805,0.5805,0.5806]},{"header":{"parameterUnit":"m.s-1","parameterCategory":1,"la1":30.2991,"la2":30.254,"lo1":-89.0895,"lo2":-89.0444,"dy":0.0017,"dx":0.0017,"nx":28,"ny":28,"refTime":"2024-05-15T09:00:00:Z","depth":0,"parameterNumber":3,"parameterNumberName":"V-component_of_WINDS"},"data":[0,0,0,0,0,0,0,0,0,0,0,0,0,0,0,0,0,0,0,0,0,0,0,0,0,0,0,0,0,0,0,0,0,0,0,0,0,0,0,0,0,0,0,0,0,0,0,0,0,0,0,0,0,0,0,0,0,0,-0.9389,-0.9388,0,-0.9268,-0.9266,-0.9265,-0.9247,-0.9248,-0.9249,-0.925,-0.912,-0.9116,-0.9111,0,0,0,0,0,0,0,0,0,0,0,0,0,-0.9598,-0.9594,-0.9389,-0.9387,-0.9386,-0.9268,-0.9266,-0.9265,-0.9247,-0.9248,-0.9249,-0.9251,-0.9122,-0.9116,-0.9111,0,0,0,0,0,0,0,0,0,0,0,0,0,-0.9495,-0.9593,-0.9389,-0.9363,-0.9359,-0.9268,-0.9266,-0.9264,-0.9246,-0.9248,-0.925,-0.9251,-0.9123,-0.9117,-0.911,-0.9035,0,0,-0.909,-0.9087,0,0,0,0,0,0,0,0,-0.9501,-0.9487,-0.9368,-0.9365,-0.936,-0.9274,-0.9292,-0.9187,-0.9246,-0.9289,-0.925,-0.9252,-0.917,-0.9159,-0.9133,-0.9029,-0.9024,-0.9089,-0.9085,-0.9082,-0.908,0,0,0,0,0,0,0,-0.9508,-0.9492,-0.9341,-0.9367,-0.9362,-0.9355,-0.9342,-0.9272,-0.9221,-0.9286,-0.9284,-0.927,-0.9168,-0.9139,-0.913,-0.9022,-0.9089,-0.9083,-0.9079,-0.9076,-0.8846,-0.8844,0,0,0,0,0,0,-0.9521,-0.9498,-0.9345,-0.9337,-0.9436,-0.935,-0.9336,-0.93,-0.9222,-0.9212,-0.9269,-0.927,-0.915,-0.9137,-0.9125,-0.9029,-0.9082,-0.9076,-0.9072,-0.8848,-0.8846,-0.8844,0,0,0,0,0,0,-0.9525,-0.9507,-0.935,-0.9417,-0.9397,-0.9344,-0.9305,-0.9297,-0.9268,-0.921,-0.92,-0.9249,-0.9151,-0.9134,-0.9057,-0.9024,-0.9073,-0.9067,-0.8851,-0.8848,-0.8845,-0.8838,0,0,0,0,0,0,-0.9531,-0.9509,-0.9482,-0.9417,-0.9393,-0.9286,-0.9303,-0.9293,-0.9257,-0.9258,-0.9189,-0.9179,-0.9151,-0.9067,-0.9051,-0.9016,-0.9061,-0.8854,-0.8849,-0.8846,-0.8841,-0.8836,-0.8831,0,0,0,0,0,-0.9539,-0.9484,-0.948,-0.9462,-0.9358,-0.9284,-0.927,-0.9241,-0.9255,-0.9226,-0.9187,-0.9181,-0.9031,-0.906,-0.904,-0.9003,-0.8855,-0.8851,-0.8846,-0.8844,-0.8837,-0.8831,0,0,0,0,0,0,-0.9544,-0.9475,-0.947,-0.9393,-0.9345,-0.9282,-0.9244,-0.9235,-0.918,-0.9182,-0.9146,-0.9131,-0.9055,-0.9022,-0.9054,-0.8925,-0.8944,-0.8935,-0.8949,-0.8942,-0.8937,-0.8945,-0.9056,0,0,0,0,0,-0.9537,-0.9485,-0.9426,-0.9364,-0.934,-0.9296,-0.9263,-0.9245,-0.9192,-0.9171,-0.9127,-0.9075,-0.9016,-0.8977,-0.892,-0.8837,-0.882,-0.8802,-0.8797,-0.8793,-0.8784,-0.8735,-0.8725,-0.8828,-0.8829,-0.8829,0,0,-0.9521,-0.9476,-0.9445,-0.9364,-0.9325,-0.9268,-0.9279,-0.922,-0.9177,-0.9161,-0.9085,-0.9052,-0.899,-0.891,-0.8872,-0.8879,-0.8752,-0.8787,-0.8784,-0.8778,-0.8729,-0.8719,-0.8711,-0.8825,-0.8826,-0.8826,0,0,-0.9461,-0.9425,-0.9367,-0.9327,-0.9268,-0.9238,-0.9225,-0.9162,-0.9139,-0.9063,-0.9049,-0.8997,-0.8897,-0.8853,-0.8817,-0.874,-0.8731,-0.8722,-0.8693,-0.8645,-0.8637,-0.8629,-0.8598,-0.8588,-0.8715,-0.8715,-0.8715,0,-0.9448,-0.9365,-0.9338,-0.9279,-0.9242,-0.9227,-0.9167,-0.9129,-0.9053,-0.9026,-0.9037,-0.8909,-0.8867,-0.8774,-0.8755,-0.8729,-0.8709,-0.8729,-0.8641,-0.8633,-0.8625,-0.8595,-0.8584,-0.8714,-0.8714,-0.8714,-0.8715,0,-0.935,-0.9292,-0.9253,-0.9181,-0.914,-0.908,-0.9042,-0.9003,-0.8988,-0.8957,-0.8877,-0.8827,-0.8757,-0.8735,-0.8719,-0.8638,-0.8644,-0.8649,-0.8667,-0.8615,-0.8586,-0.8575,-0.8713,-0.8713,-0.8714,-0.8714,0,0,-0.9289,-0.9203,-0.9189,-0.9155,-0.9087,-0.9041,-0.898,-0.8914,-0.8879,-0.8828,-0.8773,-0.8688,-0.8691,-0.865,-0.863,-0.8588,-0.8526,-0.8597,-0.8595,-0.8582,-0.8429,-0.8424,-0.8412,-0.8521,-0.8518,-0.8517,-0.8433,0,-0.922,-0.9112,-0.9085,-0.8992,-0.8937,-0.8921,-0.8867,-0.8819,-0.8788,-0.8734,-0.8699,-0.8638,-0.8649,-0.8624,-0.8582,-0.8542,-0.8494,-0.8549,-0.8466,-0.8463,-0.8478,-0.8397,-0.8392,-0.8316,-0.8422,-0.842,-0.8419,0,-0.9124,-0.9071,-0.8973,-0.891,-0.8886,-0.8838,-0.8774,-0.8724,-0.8668,-0.8648,-0.8603,-0.8586,-0.8518,-0.8542,-0.8446,-0.8484,-0.8448,-0.8424,-0.842,-0.8408,-0.8436,-0.838,-0.8291,-0.8278,-0.8401,-0.8403,-0.8404,0,-0.9086,-0.899,-0.8917,-0.8889,-0.8816,-0.8782,-0.8749,-0.8695,-0.8656,-0.8599,-0.8573,-0.8509,-0.8473,-0.8422,-0.8387,-0.8408,-0.8293,-0.8315,-0.8271,-0.8272,-0.8245,-0.8246,-0.8146,-0.8228,-0.8228,-0.8228,-0.8229,0,-0.9009,-0.8948,-0.8899,-0.8854,-0.8785,-0.8754,-0.8685,-0.8652,-0.8603,-0.8549,-0.8533,-0.8482,-0.8441,-0.8383,-0.8356,-0.8278,-0.8263,-0.8243,-0.8235,-0.8242,-0.8244,-0.8216,-0.8219,-0.8225,-0.8226,-0.8227,-0.8227,0,-0.8953,-0.8918,-0.8838,-0.8775,-0.8758,-0.8709,-0.8654,-0.8608,-0.8578,-0.851,-0.8492,-0.8442,-0.8374,-0.8335,-0.8249,-0.823,-0.8143,-0.814,-0.8162,-0.8158,-0.8115,-0.8118,-0.799,-0.797,-0.8069,-0.8068,-0.8068,0,-0.8905,-0.8858,-0.879,-0.8754,-0.8721,-0.8663,-0.8623,-0.8591,-0.8549,-0.848,-0.8442,-0.8374,-0.8316,-0.8208,-0.8162,-0.8095,-0.8088,-0.8048,-0.8078,-0.8085,-0.8083,-0.8085,-0.8078,-0.8041,-0.804,-0.804,-0.8039,0,-0.8822,-0.8806,-0.8751,-0.8689,-0.8642,-0.8591,-0.854,-0.8511,-0.8469,-0.8423,-0.8354,-0.831,-0.8222,-0.8152,-0.8082,-0.8045,-0.8033,-0.8031,-0.8016,-0.8021,-0.8034,-0.8023,-0.8144,-0.8033,-0.8033,-0.8034,-0.8034,-0.8035,-0.8765,-0.8722,-0.8667,-0.8605,-0.8564,-0.8516,-0.8469,-0.8433,-0.8375,-0.8302,-0.8286,-0.8212,-0.8154,-0.8058,-0.802,-0.7959,-0.7966,-0.7946,-0.7941,-0.7935,-0.7932,-0.8047,-0.7947,-0.7947,-0.7947,-0.7947,-0.7947,0,-0.8678,-0.8642,-0.8586,-0.8515,-0.8465,-0.8462,-0.8405,-0.8363,-0.8299,-0.8247,-0.8191,-0.811,-0.8042,-0.7991,-0.7921,-0.7882,-0.7875,-0.7865,-0.7865,-0.7856,-0.7932,-0.795,-0.7872,-0.7872,-0.7872,-0.7872,-0.7872,-0.7872,-0.8627,-0.8552,-0.853,-0.8433,-0.8397,-0.8326,-0.8293,-0.8248,-0.8206,-0.8116,-0.806,-0.8029,-0.7976,-0.7901,-0.7838,-0.7824,-0.7798,-0.7787,-0.7772,-0.7843,-0.7851,-0.7859,-0.7875,-0.7783,-0.7783,-0.7701,-0.77,-0.77]}]]